Regional Weather Roundup
Issued by NWS

Home | Current Version | Previous Version | Text Only | Print | Product List | Glossary Off
Versions: 1 2 3 4 5 6 7 8 9 10 11 12 13 14 15 16 17 18 19 20 21 22 23 24 25 26 27

000
ASUS45 KSLC 291710
RWRUT

UTAH REGIONAL WEATHER ROUNDUP
NATIONAL WEATHER SERVICE SALT LAKE CITY UT
1100 AM MDT WED MAR 29 2017

UTZ001>011-023>025-291800-

NORTHERN UTAH

CITY           SKY/WX    TMP DP  RH WIND       PRES   REMARKS
HILL AFB       SUNNY     45  29  54 S7        30.26R
LOGAN          SUNNY     45  32  60 CALM      30.26S
OGDEN          SUNNY     46  30  53 VRB3      30.25F
SALT LAKE CITY MOSUNNY   47  29  49 CALM      30.26S
TOOELE VALLEY  SUNNY     46  32  57 NW3       30.27S
WENDOVER       SUNNY     48  29  47 SE7       30.26F
HEBER CITY     SUNNY     41  27  56 CALM      30.25S
WEST JORDAN    SUNNY     50  38  63 CALM      30.27S

$$

UTZ011>015-024>027-291800-

CENTRAL/NORTHEAST UTAH

CITY           SKY/WX    TMP DP  RH WIND       PRES   REMARKS
PROVO AIRPORT  SUNNY     45  33  63 VRB3      30.28S
MOAB/CANYONLAN SUNNY     54  29  38 NW10      30.15F
DELTA          SUNNY     43  32  65 CALM      30.28R
PRICE          SUNNY     49  22  34 NW5       30.19S
RICHFIELD        N/A    N/A N/A N/A MISG        N/A
ROOSEVELT      SUNNY     46  32  57 SE7       30.24R
VERNAL         SUNNY     46  27  47 S5        30.21F

$$

UTZ013>016-019>022-027-291800-

SOUTHERN UTAH

CITY           SKY/WX    TMP DP  RH WIND       PRES   REMARKS
BRYCE CANYON   SUNNY     44  21  40 NW8       30.23F
CEDAR CITY     SUNNY     46  27  47 N10       30.22S
MILFORD        SUNNY     47  30  51 N13       30.25S
ST GEORGE      SUNNY     58  26  29 CALM      30.18S
KANAB          SUNNY     54  19  26 W3        30.23S
BLANDING       SUNNY     52  28  39 W10G16    30.18R

$$

REGIONAL REPORTS     COLORADO/ARIZONA

CITY           SKY/WX    TMP DP  RH WIND       PRES   REMARKS
CRAIG, CO      PTSUNNY   40  29  64 VRB3      30.20S
GRAND JUNCTION SUNNY     52  31  44 VRB3      30.15F
RIFLE, CO      SUNNY     49  30  48 VRB5      30.15F
MONTROSE, CO   SUNNY     45  32  60 CALM      30.17S
CORTEZ, CO     SUNNY     52  28  39 N14G26    30.07R
COLORADO CITY    N/A     55  21  26 N5        30.22S
PAGE, AZ       SUNNY     56  22  26 NW6       30.16S
GRAND CANYON   SUNNY     50  20  30 N8        30.20R
KINGMAN, AZ    SUNNY     58  10  15 NE5       30.17R
FLAGSTAFF, AZ  SUNNY     48  20  32 NE26G36   30.15R

$$

REGIONAL REPORTS    NEVADA/IDAHO/WYOMING

CITY           SKY/WX    TMP DP  RH WIND       PRES   REMARKS
LAS VEGAS, NV  PTSUNNY   64  23  21 CALM      30.18R
ELY, NY        SUNNY     40  23  50 CALM      30.26F
ELKO, NV       SUNNY     45  28  51 S5        30.25F
POCATELLO, ID  MOSUNNY   49  32  52 SW14      30.22F
BURLEY, ID     MOSUNNY   51  30  44 SW10      30.20S
EVANSTON, WY   SUNNY     38  22  52 W10       30.24S WCI  31
ROCK SPRINGS,  SUNNY     36  26  67 SW12      30.21S WCI  28
KEMMERER, WY     N/A     34  25  69 W13       30.24R WCI  25

$$




USA.gov is the U.S. government's official web portal to all federal, state and local government web resources and services.